"read_dt","SO2 (ppb)","flags","PMT voltage (V)","lamp voltage (V)","lamp intensity (Hz)","internal temp (C)","react chamber temp (C)","sample flow (l/min)","pres (mmHg)","SO2 bkg (ppb)","SO2 coefficient"
2015-01-06 00:00:00,3543E-3,5C000000,-0724,0834,12073,024.9,045.4,0.459,749.1,01.17,0.508
2015-01-06 00:01:00,3289E-3,5C000000,-0724,0835,12194,024.9,045.3,0.459,749.1,01.17,0.508
2015-01-06 00:02:00,3314E-3,5C000000,-0724,0834,12348,024.9,045.3,0.459,749.1,01.17,0.508
2015-01-06 00:03:00,3319E-3,5C000000,-0724,0835,12155,024.9,045.4,0.459,749.1,01.17,0.508
2015-01-06 00:04:00,3158E-3,5C000000,-0724,0834,12115,024.9,045.4,0.459,749.1,01.17,0.508
2015-01-06 00:05:00,3268E-3,5C000000,-0724,0834,12067,024.9,045.3,0.459,749.1,01.17,0.508
2015-01-06 00:06:00,3193E-3,5C000000,-0724,0835,12356,024.9,045.4,0.459,749.1,01.17,0.508
2015-01-06 00:07:00,3206E-3,5C000000,-0724,0834,12221,024.9,045.4,0.459,749.1,01.17,0.508
2015-01-06 00:08:00,3298E-3,5C000000,-0724,0834,12210,024.9,045.4,0.459,749.1,01.17,0.508
2015-01-06 00:09:00,3262E-3,5C000000,-0724,0835,12184,024.9,045.3,0.459,749.1,01.17,0.508
2015-01-06 00:10:00,3071E-3,5C000000,-0724,0835,12204,024.9,045.3,0.459,749.1,01.17,0.508
2015-01-06 00:11:00,3307E-3,5C000000,-0724,0835,12069,024.9,045.4,0.459,749.1,01.17,0.508
2015-01-06 00:12:00,3335E-3,5C000000,-0724,0834,12061,024.9,045.4,0.459,749.1,01.17,0.508
2015-01-06 00:13:00,3273E-3,5C000000,-0724,0835,12132,024.9,045.3,0.459,749.1,01.17,0.508
2015-01-06 00:14:00,3259E-3,5C000000,-0724,0835,12275,024.9,045.3,0.459,749.1,01.17,0.508
2015-01-06 00:15:00,3433E-3,5C000000,-0724,0834,12198,024.9,045.4,0.459,749.1,01.17,0.508
2015-01-06 00:16:00,3388E-3,5C000000,-0724,0834,12185,024.9,045.4,0.459,749.1,01.17,0.508
2015-01-06 00:17:00,3359E-3,5C000000,-0724,0834,12230,024.9,045.4,0.459,749.1,01.17,0.508
2015-01-06 00:18:00,3158E-3,5C000000,-0724,0834,12241,024.9,045.4,0.459,749.1,01.17,0.508
2015-01-06 00:19:00,3377E-3,5C000000,-0724,0835,12266,024.9,045.4,0.459,749.1,01.17,0.508
2015-01-06 00:20:00,3342E-3,5C000000,-0724,0834,12103,024.9,045.4,0.459,749.1,01.17,0.508
2015-01-06 00:21:00,3268E-3,5C000000,-0724,0835,12296,024.9,045.3,0.459,749.1,01.17,0.508
2015-01-06 00:22:00,3244E-3,5C000000,-0724,0834,12295,024.9,045.3,0.459,749.1,01.17,0.508
2015-01-06 00:23:00,3263E-3,5C000000,-0724,0833,12011,024.9,045.3,0.459,749.1,01.17,0.508
2015-01-06 00:24:00,3361E-3,5C000000,-0724,0834,12151,024.9,045.4,0.459,749.1,01.17,0.508
2015-01-06 00:25:00,3176E-3,5C000000,-0724,0834,11987,024.9,045.4,0.459,749.1,01.17,0.508
2015-01-06 00:26:00,3198E-3,5C000000,-0724,0834,12071,024.9,045.4,0.459,749.1,01.17,0.508
2015-01-06 00:27:00,3294E-3,5C000000,-0724,0835,12124,024.9,045.4,0.459,749.1,01.17,0.508
2015-01-06 00:28:00,3346E-3,5C000000,-0724,0834,12158,024.9,045.4,0.459,749.2,01.17,0.508
2015-01-06 00:29:00,3343E-3,5C000000,-0724,0834,12078,024.9,045.3,0.459,749.2,01.17,0.508
2015-01-06 00:30:00,3432E-3,5C000000,-0724,0834,12015,024.9,045.3,0.459,749.2,01.17,0.508
2015-01-06 00:31:00,3306E-3,5C000000,-0724,0833,12109,024.9,045.3,0.459,749.1,01.17,0.508
2015-01-06 00:32:00,3259E-3,5C000000,-0724,0835,12099,024.9,045.4,0.459,749.1,01.17,0.508
2015-01-06 00:33:00,3242E-3,5C000000,-0724,0834,12039,024.9,045.4,0.459,749.1,01.17,0.508
2015-01-06 00:34:00,3315E-3,5C000000,-0724,0835,12081,024.9,045.3,0.459,749.1,01.17,0.508
2015-01-06 00:35:00,3471E-3,5C000000,-0724,0834,12141,025.0,045.3,0.459,749.1,01.17,0.508
2015-01-06 00:36:00,3314E-3,5C000000,-0724,0834,12255,025.0,045.3,0.459,749.1,01.17,0.508
2015-01-06 00:37:00,3290E-3,5C000000,-0724,0834,12079,025.0,045.3,0.459,749.1,01.17,0.508
2015-01-06 00:38:00,3482E-3,5C000000,-0724,0835,12248,025.0,045.4,0.459,749.1,01.17,0.508
2015-01-06 00:39:00,3182E-3,5C000000,-0724,0834,12139,025.0,045.3,0.459,749.1,01.17,0.508
2015-01-06 00:40:00,3109E-3,5C000000,-0724,0834,12125,025.0,045.3,0.459,749.1,01.17,0.508
2015-01-06 00:41:00,3301E-3,5C000000,-0724,0834,12092,025.0,045.3,0.459,749.0,01.17,0.508
2015-01-06 00:42:00,3271E-3,5C000000,-0724,0835,12177,024.9,045.4,0.459,749.1,01.17,0.508
2015-01-06 00:43:00,3218E-3,5C000000,-0724,0835,12054,024.9,045.4,0.459,749.0,01.17,0.508
2015-01-06 00:44:00,3247E-3,5C000000,-0724,0835,12234,025.0,045.4,0.459,749.1,01.17,0.508
2015-01-06 00:45:00,3344E-3,5C000000,-0724,0834,12072,025.0,045.4,0.459,749.1,01.17,0.508
2015-01-06 00:46:00,3321E-3,5C000000,-0724,0834,12128,025.0,045.4,0.459,749.1,01.17,0.508
2015-01-06 00:47:00,3235E-3,5C000000,-0724,0835,12175,025.0,045.4,0.459,749.0,01.17,0.508
2015-01-06 00:48:00,3158E-3,5C000000,-0724,0834,12169,025.0,045.4,0.459,749.1,01.17,0.508
2015-01-06 00:49:00,3184E-3,5C000000,-0724,0834,12059,025.0,045.4,0.459,749.1,01.17,0.508
2015-01-06 00:50:00,3209E-3,5C000000,-0724,0834,12297,025.0,045.3,0.459,749.1,01.17,0.508
2015-01-06 00:51:00,3243E-3,5C000000,-0724,0834,12189,025.0,045.3,0.459,749.1,01.17,0.508
2015-01-06 00:52:00,3226E-3,5C000000,-0724,0834,12016,025.0,045.4,0.459,749.1,01.17,0.508
2015-01-06 00:53:00,3186E-3,5C000000,-0724,0833,12281,025.0,045.3,0.459,749.1,01.17,0.508
2015-01-06 00:54:00,3419E-3,5C000000,-0724,0834,12239,025.0,045.3,0.459,749.1,01.17,0.508
2015-01-06 00:55:00,3356E-3,5C000000,-0724,0834,12183,025.0,045.3,0.459,749.1,01.17,0.508
2015-01-06 00:56:00,3360E-3,5C000000,-0724,0833,12285,025.0,045.4,0.459,749.1,01.17,0.508
2015-01-06 00:57:00,3400E-3,5C000000,-0724,0834,12042,025.0,045.4,0.459,749.0,01.17,0.508
2015-01-06 00:58:00,3465E-3,5C000000,-0724,0834,12229,025.0,045.3,0.459,749.0,01.17,0.508
2015-01-06 00:59:00,3380E-3,5C000000,-0724,0834,12164,025.0,045.3,0.458,749.0,01.17,0.508
2015-01-06 01:00:00,3130E-3,5C000000,-0724,0833,12181,025.0,045.4,0.459,749.0,01.17,0.508
2015-01-06 01:01:00,3480E-3,5C000000,-0724,0833,12105,025.0,045.4,0.459,749.0,01.17,0.508
2015-01-06 01:02:00,3356E-3,5C000000,-0724,0833,12210,025.0,045.4,0.459,749.0,01.17,0.508
2015-01-06 01:03:00,3419E-3,5C000000,-0724,0834,11985,025.0,045.4,0.459,749.0,01.17,0.508
2015-01-06 01:04:00,3320E-3,5C000000,-0724,0833,12108,025.0,045.3,0.459,749.0,01.17,0.508
2015-01-06 01:05:00,3343E-3,5C000000,-0724,0833,12166,025.0,045.4,0.459,749.0,01.17,0.508
2015-01-06 01:06:00,3438E-3,5C000000,-0724,0834,12024,025.0,045.4,0.459,749.0,01.17,0.508
2015-01-06 01:07:00,3283E-3,5C000000,-0724,0834,12101,025.0,045.4,0.459,749.0,01.17,0.508
2015-01-06 01:08:00,3319E-3,5C000000,-0724,0834,12236,025.0,045.3,0.459,749.0,01.17,0.508
2015-01-06 01:09:00,3445E-3,5C000000,-0724,0833,12128,025.0,045.3,0.459,749.0,01.17,0.508
2015-01-06 01:10:00,3410E-3,5C000000,-0724,0834,12221,025.0,045.4,0.459,749.0,01.17,0.508
2015-01-06 01:11:00,3355E-3,5C000000,-0724,0833,12265,025.0,045.4,0.459,749.0,01.17,0.508
2015-01-06 01:12:00,3223E-3,5C000000,-0724,0833,12114,025.0,045.3,0.459,749.0,01.17,0.508
2015-01-06 01:13:00,3365E-3,5C000000,-0724,0835,12154,025.0,045.3,0.459,749.0,01.17,0.508
2015-01-06 01:14:00,3167E-3,5C000000,-0724,0834,12057,025.0,045.3,0.458,749.0,01.17,0.508
2015-01-06 01:15:00,3196E-3,5C000000,-0724,0835,12269,025.0,045.3,0.459,748.9,01.17,0.508
2015-01-06 01:16:00,3404E-3,5C000000,-0724,0835,12291,025.0,045.4,0.459,748.9,01.17,0.508
2015-01-06 01:17:00,3195E-3,5C000000,-0724,0835,12200,025.1,045.3,0.459,748.9,01.17,0.508
2015-01-06 01:18:00,3263E-3,5C000000,-0724,0835,12389,025.0,045.4,0.459,748.9,01.17,0.508
2015-01-06 01:19:00,3313E-3,5C000000,-0724,0834,12150,025.0,045.3,0.458,749.0,01.17,0.508
2015-01-06 01:20:00,3199E-3,5C000000,-0724,0834,12089,025.1,045.3,0.459,748.9,01.17,0.508
2015-01-06 01:21:00,3329E-3,5C000000,-0724,0834,12174,025.1,045.3,0.459,748.9,01.17,0.508
2015-01-06 01:22:00,3283E-3,5C000000,-0724,0834,12002,025.0,045.4,0.458,749.0,01.17,0.508
2015-01-06 01:23:00,3337E-3,5C000000,-0724,0834,12191,025.0,045.3,0.459,749.0,01.17,0.508
2015-01-06 01:24:00,3221E-3,5C000000,-0724,0834,12155,025.1,045.4,0.459,749.0,01.17,0.508
2015-01-06 01:25:00,3217E-3,5C000000,-0724,0833,12326,025.1,045.3,0.459,749.0,01.17,0.508
2015-01-06 01:26:00,3110E-3,5C000000,-0724,0834,12103,025.0,045.4,0.459,749.0,01.17,0.508
2015-01-06 01:27:00,3414E-3,5C000000,-0724,0835,12203,025.1,045.4,0.458,749.0,01.17,0.508
2015-01-06 01:28:00,3287E-3,5C000000,-0724,0834,12206,025.1,045.4,0.459,749.0,01.17,0.508
2015-01-06 01:29:00,3195E-3,5C000000,-0724,0833,12151,025.1,045.3,0.459,749.0,01.17,0.508
2015-01-06 01:30:00,3298E-3,5C000000,-0724,0833,12028,025.0,045.4,0.458,749.0,01.17,0.508
2015-01-06 01:31:00,3201E-3,5C000000,-0724,0833,12141,025.1,045.4,0.459,749.0,01.17,0.508
2015-01-06 01:32:00,3276E-3,5C000000,-0724,0834,12133,025.1,045.4,0.459,749.0,01.17,0.508
2015-01-06 01:33:00,3431E-3,5C000000,-0724,0835,12213,025.1,045.4,0.459,749.0,01.17,0.508
2015-01-06 01:34:00,3142E-3,5C000000,-0724,0834,12174,025.1,045.4,0.459,749.1,01.17,0.508
2015-01-06 01:35:00,3163E-3,5C000000,-0724,0834,12104,025.1,045.4,0.459,749.0,01.17,0.508
2015-01-06 01:36:00,3022E-3,5C000000,-0724,0834,12157,025.1,045.4,0.459,749.0,01.17,0.508
2015-01-06 01:37:00,3135E-3,5C000000,-0724,0833,12045,025.1,045.4,0.459,749.1,01.17,0.508
2015-01-06 01:38:00,3172E-3,5C000000,-0724,0834,12018,025.1,045.4,0.458,749.1,01.17,0.508
2015-01-06 01:39:00,3276E-3,5C000000,-0724,0834,12272,025.1,045.4,0.459,749.0,01.17,0.508
2015-01-06 01:40:00,3437E-3,5C000000,-0724,0833,12146,025.1,045.4,0.459,749.0,01.17,0.508
2015-01-06 01:41:00,3274E-3,5C000000,-0724,0834,12131,025.1,045.3,0.458,749.0,01.17,0.508
2015-01-06 01:42:00,3327E-3,5C000000,-0724,0835,12183,025.1,045.4,0.459,749.0,01.17,0.508
2015-01-06 01:43:00,3093E-3,5C000000,-0724,0835,12147,025.1,045.3,0.459,749.1,01.17,0.508
2015-01-06 01:44:00,3082E-3,5C000000,-0724,0834,12243,025.1,045.3,0.459,749.0,01.17,0.508
2015-01-06 01:45:00,3288E-3,5C000000,-0724,0835,12292,025.1,045.4,0.459,749.0,01.17,0.508
2015-01-06 01:46:00,3206E-3,5C000000,-0724,0835,12275,025.1,045.4,0.458,749.0,01.17,0.508
2015-01-06 01:47:00,3092E-3,5C000000,-0724,0835,12315,025.1,045.4,0.459,749.0,01.17,0.508
2015-01-06 01:48:00,3142E-3,5C000000,-0724,0834,12201,025.1,045.4,0.459,749.0,01.17,0.508
2015-01-06 01:49:00,3112E-3,5C000000,-0724,0835,12141,025.1,045.3,0.458,749.0,01.17,0.508
2015-01-06 01:50:00,3249E-3,5C000000,-0724,0835,12192,025.1,045.4,0.459,749.0,01.17,0.508
2015-01-06 01:51:00,3311E-3,5C000000,-0724,0835,12127,025.1,045.4,0.459,749.0,01.17,0.508
2015-01-06 01:52:00,3124E-3,5C000000,-0724,0834,12210,025.1,045.4,0.458,749.0,01.17,0.508
2015-01-06 01:53:00,3260E-3,5C000000,-0724,0833,12102,025.1,045.4,0.459,748.9,01.17,0.508
2015-01-06 01:54:00,3365E-3,5C000000,-0724,0834,12304,025.1,045.4,0.458,748.9,01.17,0.508
2015-01-06 01:55:00,3287E-3,5C000000,-0724,0834,11883,025.1,045.3,0.459,748.9,01.17,0.508
2015-01-06 01:56:00,3203E-3,5C000000,-0724,0834,12221,025.1,045.4,0.459,748.9,01.17,0.508
2015-01-06 01:57:00,3170E-3,5C000000,-0724,0833,12158,025.1,045.4,0.458,748.9,01.17,0.508
2015-01-06 01:58:00,3188E-3,5C000000,-0724,0834,12222,025.1,045.4,0.459,748.9,01.17,0.508
2015-01-06 01:59:00,3213E-3,5C000000,-0724,0834,12116,025.1,045.4,0.459,748.9,01.17,0.508
2015-01-06 02:00:00,3118E-3,5C000000,-0724,0834,12260,025.1,045.4,0.458,748.8,01.17,0.508
2015-01-06 02:01:00,3144E-3,5C000000,-0724,0834,12126,025.1,045.3,0.459,748.8,01.17,0.508
2015-01-06 02:02:00,3116E-3,5C000000,-0724,0834,12339,025.1,045.4,0.458,748.8,01.17,0.508
2015-01-06 02:03:00,3187E-3,5C000000,-0724,0834,12148,025.1,045.4,0.459,748.8,01.17,0.508
2015-01-06 02:04:00,3190E-3,5C000000,-0724,0834,12078,025.1,045.4,0.459,748.8,01.17,0.508
2015-01-06 02:05:00,3354E-3,5C000000,-0724,0834,12204,025.1,045.4,0.458,748.8,01.17,0.508
2015-01-06 02:06:00,3099E-3,5C000000,-0724,0834,12400,025.1,045.4,0.459,748.8,01.17,0.508
2015-01-06 02:07:00,3307E-3,5C000000,-0724,0834,12285,025.1,045.4,0.459,748.8,01.17,0.508
2015-01-06 02:08:00,3184E-3,5C000000,-0724,0835,12284,025.1,045.4,0.458,748.8,01.17,0.508
2015-01-06 02:09:00,3172E-3,5C000000,-0724,0835,12150,025.1,045.3,0.458,748.8,01.17,0.508
2015-01-06 02:10:00,3126E-3,5C000000,-0724,0834,12266,025.1,045.3,0.459,748.8,01.17,0.508
2015-01-06 02:11:00,3228E-3,5C000000,-0724,0834,12127,025.1,045.3,0.459,748.8,01.17,0.508
2015-01-06 02:12:00,3172E-3,5C000000,-0724,0834,12130,025.1,045.3,0.458,748.8,01.17,0.508
2015-01-06 02:13:00,3103E-3,5C000000,-0724,0835,12186,025.2,045.3,0.459,748.8,01.17,0.508
2015-01-06 02:14:00,3191E-3,5C000000,-0724,0835,11989,025.1,045.4,0.458,748.8,01.17,0.508
2015-01-06 02:15:00,3122E-3,5C000000,-0724,0834,12128,025.2,045.4,0.458,748.8,01.17,0.508
2015-01-06 02:16:00,3052E-3,5C000000,-0724,0834,12015,025.1,045.4,0.459,748.8,01.17,0.508
2015-01-06 02:17:00,3219E-3,5C000000,-0724,0835,12325,025.1,045.4,0.458,748.8,01.17,0.508
2015-01-06 02:18:00,3134E-3,5C000000,-0724,0834,12092,025.2,045.4,0.459,748.8,01.17,0.508
2015-01-06 02:19:00,3310E-3,5C000000,-0724,0835,12169,025.1,045.4,0.459,748.8,01.17,0.508
2015-01-06 02:20:00,3081E-3,5C000000,-0724,0834,12303,025.1,045.4,0.458,748.8,01.17,0.508
2015-01-06 02:21:00,3097E-3,5C000000,-0724,0834,12067,025.2,045.4,0.459,748.8,01.17,0.508
2015-01-06 02:22:00,3213E-3,5C000000,-0724,0834,12048,025.2,045.4,0.458,748.8,01.17,0.508
2015-01-06 02:23:00,3225E-3,5C000000,-0724,0834,12091,025.2,045.3,0.459,748.8,01.17,0.508
2015-01-06 02:24:00,3122E-3,5C000000,-0724,0834,12188,025.2,045.3,0.459,748.8,01.17,0.508
2015-01-06 02:25:00,3033E-3,5C000000,-0724,0834,12185,025.2,045.4,0.458,748.8,01.17,0.508
2015-01-06 02:26:00,3202E-3,5C000000,-0724,0834,12003,025.2,045.4,0.459,748.7,01.17,0.508
2015-01-06 02:27:00,3253E-3,5C000000,-0724,0833,12180,025.2,045.4,0.458,748.7,01.17,0.508
2015-01-06 02:28:00,3200E-3,5C000000,-0724,0834,12225,025.2,045.4,0.458,748.7,01.17,0.508
2015-01-06 02:29:00,3122E-3,5C000000,-0724,0833,12209,025.2,045.4,0.459,748.7,01.17,0.508
2015-01-06 02:30:00,3223E-3,5C000000,-0724,0833,12076,025.2,045.4,0.458,748.7,01.17,0.508
2015-01-06 02:31:00,3032E-3,5C000000,-0724,0834,12211,025.2,045.4,0.459,748.7,01.17,0.508
2015-01-06 02:32:00,3193E-3,5C000000,-0724,0834,12245,025.2,045.4,0.459,748.7,01.17,0.508
2015-01-06 02:33:00,3243E-3,5C000000,-0724,0833,12225,025.2,045.3,0.458,748.7,01.17,0.508
2015-01-06 02:34:00,3199E-3,5C000000,-0724,0834,12179,025.2,045.4,0.459,748.7,01.17,0.508
2015-01-06 02:35:00,3262E-3,5C000000,-0724,0835,12212,025.2,045.3,0.458,748.7,01.17,0.508
2015-01-06 02:36:00,3154E-3,5C000000,-0724,0833,12108,025.2,045.4,0.458,748.7,01.17,0.508
2015-01-06 02:37:00,3276E-3,5C000000,-0724,0834,12273,025.2,045.3,0.459,748.7,01.17,0.508
2015-01-06 02:38:00,3302E-3,5C000000,-0724,0834,12168,025.2,045.4,0.458,748.7,01.17,0.508
2015-01-06 02:39:00,3224E-3,5C000000,-0724,0834,12052,025.2,045.4,0.459,748.7,01.17,0.508
2015-01-06 02:40:00,3163E-3,5C000000,-0724,0835,12155,025.2,045.4,0.459,748.7,01.17,0.508
2015-01-06 02:41:00,3015E-3,5C000000,-0724,0836,12025,025.2,045.4,0.458,748.7,01.17,0.508
2015-01-06 02:42:00,3209E-3,5C000000,-0724,0834,12235,025.2,045.4,0.459,748.7,01.17,0.508
2015-01-06 02:43:00,3200E-3,5C000000,-0724,0833,12127,025.2,045.4,0.459,748.7,01.17,0.508
2015-01-06 02:44:00,3201E-3,5C000000,-0724,0833,12109,025.2,045.4,0.458,748.7,01.17,0.508
2015-01-06 02:45:00,3151E-3,5C000000,-0724,0834,12159,025.2,045.3,0.459,748.7,01.17,0.508
2015-01-06 02:46:00,3220E-3,5C000000,-0724,0833,12117,025.2,045.3,0.458,748.7,01.17,0.508
2015-01-06 02:47:00,3080E-3,5C000000,-0724,0833,12041,025.2,045.4,0.458,748.7,01.17,0.508
2015-01-06 02:48:00,3261E-3,5C000000,-0724,0835,12163,025.2,045.4,0.459,748.7,01.17,0.508
2015-01-06 02:49:00,3144E-3,5C000000,-0724,0834,12035,025.2,045.4,0.458,748.6,01.17,0.508
2015-01-06 02:50:00,3172E-3,5C000000,-0724,0834,12165,025.2,045.4,0.458,748.5,01.17,0.508
2015-01-06 02:51:00,3273E-3,5C000000,-0724,0835,12118,025.2,045.4,0.459,748.6,01.17,0.508
2015-01-06 02:52:00,3228E-3,5C000000,-0724,0833,11990,025.2,045.3,0.458,748.6,01.17,0.508
2015-01-06 02:53:00,3320E-3,5C000000,-0724,0833,12171,025.2,045.4,0.458,748.6,01.17,0.508
2015-01-06 02:54:00,3169E-3,5C000000,-0724,0834,12217,025.2,045.4,0.459,748.5,01.17,0.508
2015-01-06 02:55:00,3223E-3,5C000000,-0724,0833,12056,025.2,045.4,0.458,748.6,01.17,0.508
2015-01-06 02:56:00,3329E-3,5C000000,-0724,0833,12105,025.2,045.3,0.458,748.6,01.17,0.508
2015-01-06 02:57:00,3204E-3,5C000000,-0724,0834,12135,025.2,045.3,0.459,748.5,01.17,0.508
2015-01-06 02:58:00,3222E-3,5C000000,-0724,0834,12109,025.2,045.4,0.458,748.5,01.17,0.508
2015-01-06 02:59:00,3482E-3,5C000000,-0724,0833,12149,025.2,045.4,0.458,748.5,01.17,0.508
2015-01-06 03:00:00,3094E-3,5C000000,-0724,0834,12223,025.2,045.4,0.459,748.5,01.17,0.508
2015-01-06 03:01:00,3281E-3,5C000000,-0724,0834,12145,025.2,045.4,0.458,748.4,01.17,0.508
2015-01-06 03:02:00,3203E-3,5C000000,-0724,0834,12313,025.2,045.4,0.459,748.4,01.17,0.508
2015-01-06 03:03:00,3287E-3,5C000000,-0724,0835,12263,025.2,045.3,0.459,748.5,01.17,0.508
2015-01-06 03:04:00,3104E-3,5C000000,-0724,0834,12139,025.2,045.3,0.458,748.6,01.17,0.508
2015-01-06 03:05:00,3211E-3,5C000000,-0724,0834,12421,025.2,045.3,0.458,748.5,01.17,0.508
2015-01-06 03:06:00,3118E-3,5C000000,-0724,0834,12076,025.2,045.3,0.458,748.5,01.17,0.508
2015-01-06 03:07:00,3135E-3,5C000000,-0724,0834,12305,025.2,045.4,0.458,748.6,01.17,0.508
2015-01-06 03:08:00,3182E-3,5C000000,-0724,0834,12173,025.2,045.4,0.459,748.5,01.17,0.508
2015-01-06 03:09:00,3178E-3,5C000000,-0724,0833,12015,025.2,045.4,0.458,748.6,01.17,0.508
2015-01-06 03:10:00,3200E-3,5C000000,-0724,0833,12244,025.2,045.4,0.458,748.6,01.17,0.508
2015-01-06 03:11:00,3240E-3,5C000000,-0724,0834,12149,025.2,045.4,0.459,748.6,01.17,0.508
2015-01-06 03:12:00,3316E-3,5C000000,-0724,0835,12281,025.2,045.3,0.458,748.6,01.17,0.508
2015-01-06 03:13:00,3269E-3,5C000000,-0724,0835,12211,025.2,045.4,0.459,748.6,01.17,0.508
2015-01-06 03:14:00,3292E-3,5C000000,-0724,0835,12115,025.2,045.4,0.459,748.6,01.17,0.508
2015-01-06 03:15:00,3152E-3,5C000000,-0724,0833,12085,025.2,045.3,0.458,748.6,01.17,0.508
2015-01-06 03:16:00,3173E-3,5C000000,-0724,0834,11939,025.2,045.3,0.459,748.6,01.17,0.508
2015-01-06 03:17:00,3189E-3,5C000000,-0724,0835,12206,025.2,045.3,0.458,748.6,01.17,0.508
2015-01-06 03:18:00,3262E-3,5C000000,-0724,0834,12170,025.2,045.3,0.458,748.6,01.17,0.508
2015-01-06 03:19:00,3227E-3,5C000000,-0724,0834,12194,025.1,045.3,0.459,748.6,01.17,0.508
2015-01-06 03:20:00,3002E-3,5C000000,-0724,0834,12204,025.2,045.3,0.458,748.6,01.17,0.508
2015-01-06 03:21:00,3271E-3,5C000000,-0724,0833,12043,025.2,045.4,0.459,748.6,01.17,0.508
2015-01-06 03:22:00,3227E-3,5C000000,-0724,0834,12116,025.1,045.4,0.459,748.6,01.17,0.508
2015-01-06 03:23:00,3231E-3,5C000000,-0724,0834,12249,025.1,045.4,0.458,748.6,01.17,0.508
2015-01-06 03:24:00,3169E-3,5C000000,-0724,0834,12216,025.1,045.4,0.459,748.6,01.17,0.508
2015-01-06 03:25:00,3175E-3,5C000000,-0724,0833,12050,025.1,045.4,0.458,748.7,01.17,0.508
2015-01-06 03:26:00,3201E-3,5C000000,-0724,0834,12129,025.1,045.3,0.458,748.7,01.17,0.508
2015-01-06 03:27:00,3003E-3,5C000000,-0724,0834,12165,025.2,045.4,0.459,748.7,01.17,0.508
2015-01-06 03:28:00,3266E-3,5C000000,-0724,0833,12011,025.2,045.4,0.458,748.8,01.17,0.508
2015-01-06 03:29:00,3271E-3,5C000000,-0724,0834,12225,025.2,045.4,0.459,748.7,01.17,0.508
2015-01-06 03:30:00,3091E-3,5C000000,-0724,0834,12065,025.1,045.4,0.459,748.7,01.17,0.508
2015-01-06 03:31:00,3263E-3,5C000000,-0724,0834,12116,025.1,045.4,0.458,748.7,01.17,0.508
2015-01-06 03:32:00,3273E-3,5C000000,-0724,0834,12163,025.1,045.4,0.459,748.7,01.17,0.508
2015-01-06 03:33:00,3200E-3,5C000000,-0724,0834,12178,025.1,045.4,0.459,748.8,01.17,0.508
2015-01-06 03:34:00,3183E-3,5C000000,-0724,0834,12219,025.1,045.4,0.458,748.7,01.17,0.508
2015-01-06 03:35:00,3251E-3,5C000000,-0724,0834,12198,025.1,045.3,0.459,748.8,01.17,0.508
2015-01-06 03:36:00,3161E-3,5C000000,-0724,0833,12164,025.1,045.4,0.459,748.7,01.17,0.508
2015-01-06 03:37:00,3388E-3,5C000000,-0724,0834,12164,025.1,045.4,0.458,748.7,01.17,0.508
2015-01-06 03:38:00,3230E-3,5C000000,-0724,0834,12193,025.1,045.4,0.459,748.8,01.17,0.508
2015-01-06 03:39:00,3189E-3,5C000000,-0724,0834,12372,025.1,045.4,0.458,748.8,01.17,0.508
2015-01-06 03:40:00,3253E-3,5C000000,-0724,0834,12018,025.1,045.4,0.459,748.8,01.17,0.508
2015-01-06 03:41:00,3051E-3,5C000000,-0724,0834,12180,025.1,045.4,0.459,748.8,01.17,0.508
2015-01-06 03:42:00,3185E-3,5C000000,-0724,0834,12267,025.1,045.4,0.458,748.8,01.17,0.508
2015-01-06 03:43:00,3269E-3,5C000000,-0724,0834,12296,025.1,045.4,0.459,748.8,01.17,0.508
2015-01-06 03:44:00,3266E-3,5C000000,-0724,0834,12058,025.1,045.4,0.459,748.8,01.17,0.508
2015-01-06 03:45:00,3286E-3,5C000000,-0724,0834,12089,025.1,045.4,0.458,748.8,01.17,0.508
2015-01-06 03:46:00,3095E-3,5C000000,-0724,0834,12156,025.1,045.4,0.459,748.8,01.17,0.508
2015-01-06 03:47:00,3152E-3,5C000000,-0724,0834,12092,025.1,045.3,0.459,748.8,01.17,0.508
2015-01-06 03:48:00,3239E-3,5C000000,-0724,0834,11982,025.1,045.3,0.459,748.8,01.17,0.508
2015-01-06 03:49:00,3261E-3,5C000000,-0724,0833,12106,025.1,045.4,0.459,748.8,01.17,0.508
2015-01-06 03:50:00,3166E-3,5C000000,-0724,0834,12218,025.1,045.4,0.458,748.9,01.17,0.508
2015-01-06 03:51:00,3194E-3,5C000000,-0724,0833,12010,025.1,045.3,0.459,748.9,01.17,0.508
2015-01-06 03:52:00,3265E-3,5C000000,-0724,0834,12058,025.1,045.4,0.459,748.8,01.17,0.508
2015-01-06 03:53:00,3140E-3,5C000000,-0724,0834,12125,025.1,045.4,0.458,748.9,01.17,0.508
2015-01-06 03:54:00,3158E-3,5C000000,-0724,0833,12123,025.1,045.3,0.459,748.9,01.17,0.508
2015-01-06 03:55:00,3129E-3,5C000000,-0724,0834,12056,025.1,045.3,0.458,748.9,01.17,0.508
2015-01-06 03:56:00,3170E-3,5C000000,-0724,0834,12187,025.1,045.3,0.459,748.9,01.17,0.508
2015-01-06 03:57:00,3156E-3,5C000000,-0724,0834,12197,025.1,045.3,0.459,748.9,01.17,0.508
2015-01-06 03:58:00,3355E-3,5C000000,-0724,0834,12226,025.1,045.4,0.458,748.8,01.17,0.508
2015-01-06 03:59:00,3175E-3,5C000000,-0724,0833,12193,025.1,045.4,0.459,748.8,01.17,0.508
2015-01-06 04:00:00,3244E-3,5C000000,-0724,0835,12164,025.1,045.3,0.459,748.9,01.17,0.508
2015-01-06 04:01:00,3128E-3,5C000000,-0724,0834,12133,025.1,045.4,0.458,748.8,01.17,0.508
2015-01-06 04:02:00,3157E-3,5C000000,-0724,0834,12192,025.1,045.4,0.459,748.9,01.17,0.508
2015-01-06 04:03:00,3123E-3,5C000000,-0724,0834,12331,025.1,045.4,0.459,748.9,01.17,0.508
2015-01-06 04:04:00,3281E-3,5C000000,-0724,0835,12296,025.1,045.4,0.458,748.9,01.17,0.508
2015-01-06 04:05:00,3176E-3,5C000000,-0724,0834,12098,025.1,045.4,0.459,748.9,01.17,0.508
2015-01-06 04:06:00,3142E-3,5C000000,-0724,0835,12135,025.1,045.3,0.459,748.9,01.17,0.508
2015-01-06 04:07:00,3169E-3,5C000000,-0724,0835,12137,025.1,045.4,0.458,748.9,01.17,0.508
2015-01-06 04:08:00,3144E-3,5C000000,-0724,0835,12173,025.1,045.3,0.459,748.9,01.17,0.508
2015-01-06 04:09:00,3155E-3,5C000000,-0724,0835,12204,025.1,045.4,0.459,748.9,01.17,0.508
2015-01-06 04:10:00,3128E-3,5C000000,-0724,0835,12209,025.1,045.4,0.459,749.0,01.17,0.508
2015-01-06 04:11:00,3212E-3,5C000000,-0724,0834,12200,025.1,045.4,0.459,748.9,01.17,0.508
2015-01-06 04:12:00,3151E-3,5C000000,-0724,0835,12053,025.1,045.4,0.459,748.9,01.17,0.508
2015-01-06 04:13:00,3294E-3,5C000000,-0724,0835,12061,025.1,045.4,0.459,748.9,01.17,0.508
2015-01-06 04:14:00,3192E-3,5C000000,-0724,0835,12170,025.1,045.4,0.459,748.9,01.17,0.508
2015-01-06 04:15:00,3149E-3,5C000000,-0724,0835,12163,025.1,045.3,0.459,748.9,01.17,0.508
2015-01-06 04:16:00,3211E-3,5C000000,-0724,0835,12302,025.1,045.4,0.459,749.0,01.17,0.508
2015-01-06 04:17:00,3239E-3,5C000000,-0724,0833,12198,025.1,045.4,0.459,749.0,01.17,0.508
2015-01-06 04:18:00,3162E-3,5C000000,-0724,0834,12169,025.1,045.4,0.458,749.0,01.17,0.508
2015-01-06 04:19:00,3174E-3,5C000000,-0724,0835,12190,025.1,045.4,0.459,748.9,01.17,0.508
2015-01-06 04:20:00,3113E-3,5C000000,-0724,0835,12117,025.1,045.4,0.459,748.9,01.17,0.508